Satellite-Ground Cal/Val Site Overpasses Predictions

Prediction of Satellite NPP Overpassing Cal/Val Site: Antarctic Dome C

Ground Cal/Val Site Location: Latitude: -75.10, Longitude: 123.35; Satellite-Ground Site NADIR distance within 100 km.

Table of predicted overpasses for the next 14.0 days since TLE Epoch: 4/22/2025
Interval Starting Time Ending Time Minimum Distance Time Minimum Distance (km)
1 04/22/2025 07:32:31 04/22/2025 07:33:00 04/22/2025 07:32:45 3.74
2 04/25/2025 14:56:03 04/25/2025 14:56:31 04/25/2025 14:56:17 24.64
3 04/26/2025 14:37:21 04/26/2025 14:37:38 04/26/2025 14:37:30 82.34
4 04/27/2025 07:38:55 04/27/2025 07:39:23 04/27/2025 07:39:09 33.68
5 04/28/2025 07:20:12 04/28/2025 07:20:30 04/28/2025 07:20:21 76.22
6 04/30/2025 15:02:30 04/30/2025 15:02:52 04/30/2025 15:02:41 62.07
7 05/01/2025 14:43:39 05/01/2025 14:44:05 05/01/2025 14:43:52 47.05
8 05/02/2025 07:45:22 05/02/2025 07:45:43 05/02/2025 07:45:32 69.25
